Powrót do katalogu

STARLINK-31135

AktywnyŁącznośćVLEO
NORAD 58771·PAYLOAD·🇺🇸 United States

Wystrzelony Jan 14, 2024 z Vandenberg Space Force Base

Loading…

Następne Przeloty (najbliższe 24 godziny)

TLE

ŚwieżeSource: CelesTrak SupGP

Epoka: Sep 15, 2026, 02:22 UTC

1 58771C 24011G   26258.09909722 -.00091132  00000+0 -26923-2 0  2586
2 58771  53.1582 210.6160 0001321  88.5251   1.8502 15.34439246    14

Śledź STARLINK-31135 w czasie rzeczywistym z AllMySat

Download on the App Store